EXACTVIEW-1 (ADS-1B)

Last updated on Wed Dec 17 2025 00:02:33 GMT+0000 (Coordinated Universal Time)

1 38709U 12039C 25350.25458494 .00000127 00000+0 74368-4 0 9999 2 38709 98.9637 98.7184 0010488 343.9238 16.1606 14.24909430696659
UTC large
Height (km)
Speed (km/s)
/
Latitude / Longitude
Inclination (degrees)
Orbital Period (minutes)
Azimuth
Elevation
Range (km)
Doppler Factor

Next 0 passes for location: London (51.5072 / 0.1276)

Sorry there are no passes over London.